| time (UTC) | temp C | wind direction | speed KPH | gust KPH | rain 1hr cm | rain 24hr cm | rain mn cm | humidity % | barometer mb |
| 20260502151833 | 8 | 311 | 9.7 | 16.1 | 0.00 | 0.00 | 0.00 | 56 | 1017.2 |
| 20260502151241 | 8 | 345 | 8.0 | 14.5 | 0.00 | 0.00 | 0.00 | 57 | 1017.2 |
| 20260502150650 | 8 | 263 | 4.8 | 16.1 | 0.00 | 0.00 | 0.00 | 58 | 1017.2 |
| 20260502130631 | 4 | 345 | 3.2 | 9.7 | 0.00 | 0.00 | 0.00 | 98 | 1017.6 |
| 20260502123636 | 3 | 311 | 4.8 | 4.8 | 0.00 | 0.00 | 0.00 | 99 | 1017.2 |
| 20260502122440 | 2 | 298 | 1.6 | 4.8 | 0.00 | 0.00 | 0.00 | 99 | 1016.9 |
| 20260502121222 | 2 | 343 | 6.4 | 11.3 | 0.00 | 0.00 | 0.00 | 99 | 1017.2 |
| 20260502120644 | 2 | 286 | 1.6 | 4.8 | 0.00 | 0.00 | 0.00 | 99 | 1017.2 |
| 20260502115451 | 2 | 295 | 4.8 | 4.8 | 0.00 | 0.00 | 0.00 | 99 | 1017.2 |
| 20260502114813 | 2 | 292 | 3.2 | 6.4 | 0.00 | 0.00 | 0.00 | 99 | 1016.9 |
| 20260502114232 | 2 | 272 | 3.2 | 6.4 | 0.00 | 0.00 | 0.00 | 99 | 1017.2 |
| 20260502113611 | 2 | 290 | 3.2 | 6.4 | 0.00 | 0.00 | 0.00 | 99 | 1016.9 |
| 20260502113039 | 1 | 279 | 1.6 | 3.2 | 0.00 | 0.00 | 0.00 | 99 | 1016.9 |
| 20260502112437 | 1 | 273 | 3.2 | 3.2 | 0.00 | 0.00 | 0.00 | 99 | 1017.2 |
| 20260502111828 | 1 | 279 | 3.2 | 3.2 | 0.00 | 0.00 | 0.00 | 99 | 1016.9 |
| 20260502111226 | 1 | 279 | 1.6 | 3.2 | 0.00 | 0.00 | 0.00 | 99 | 1016.5 |
| 20260502110017 | 1 | 279 | 3.2 | 4.8 | 0.00 | 0.00 | 0.00 | 99 | 1016.9 |
| 20260502105418 | 1 | 290 | 4.8 | 4.8 | 0.00 | 0.00 | 0.00 | 99 | 1016.9 |
| 20260502104829 | 1 | 274 | 3.2 | 4.8 | 0.00 | 0.00 | 0.00 | 99 | 1016.9 |
| 20260502104217 | 1 | 277 | 3.2 | 3.2 | 0.00 | 0.00 | 0.00 | 99 | 1016.9 |
| 20260502103635 | 1 | 276 | 1.6 | 3.2 | 0.00 | 0.00 | 0.00 | 99 | 1017.2 |
| 20260502103043 | 1 | 275 | 3.2 | 3.2 | 0.00 | 0.00 | 0.00 | 99 | 1016.9 |
| 20260502102419 | 1 | 283 | 1.6 | 1.6 | 0.00 | 0.00 | 0.00 | 99 | 1016.9 |
| 20260502101847 | 1 | 275 | 1.6 | 4.8 | 0.00 | 0.00 | 0.00 | 99 | 1017.2 |
| 20260502100631 | 2 | 282 | 1.6 | 3.2 | 0.00 | 0.00 | 0.00 | 99 | 1016.9 |
| 20260502091252 | 1 | 292 | 0.0 | 0.0 | 0.00 | 0.00 | 0.00 | 99 | 1017.2 |
| 20260502090624 | 1 | 287 | 0.0 | 0.0 | 0.00 | 0.00 | 0.00 | 99 | 1017.2 |
| 20260502071224 | 2 | 280 | 0.0 | 1.6 | 0.00 | 0.00 | 0.00 | 99 | 1016.9 |
| 20260502070652 | 2 | 289 | 0.0 | 0.0 | 0.00 | 0.00 | 0.00 | 99 | 1016.9 |
| 20260502070035 | 2 | 289 | 0.0 | 0.0 | 0.00 | 0.00 | 0.00 | 99 | 1016.5 |
| 20260502063651 | 2 | 297 | 0.0 | 0.0 | 0.00 | 0.00 | 0.00 | 99 | 1016.9 |
| 20260502063042 | 2 | 297 | 0.0 | 0.0 | 0.00 | 0.00 | 0.00 | 99 | 1016.9 |
| 20260502061814 | 2 | 297 | 0.0 | 0.0 | 0.00 | 0.00 | 0.00 | 99 | 1017.2 |
| 20260502061249 | 3 | 297 | 0.0 | 0.0 | 0.00 | 0.00 | 0.00 | 99 | 1017.2 |
| 20260502060622 | 2 | 297 | 0.0 | 0.0 | 0.00 | 0.00 | 0.00 | 99 | 1017.6 |
| 20260502060047 | 3 | 297 | 0.0 | 0.0 | 0.00 | 0.00 | 0.00 | 99 | 1017.2 |
| 20260502055448 | 3 | 297 | 0.0 | 0.0 | 0.00 | 0.00 | 0.00 | 99 | 1017.6 |
| 20260502054820 | 3 | 297 | 0.0 | 0.0 | 0.00 | 0.00 | 0.00 | 99 | 1017.2 |
| 20260502054251 | 3 | 297 | 0.0 | 0.0 | 0.00 | 0.00 | 0.00 | 99 | 1017.2 |
| 20260502053021 | 3 | 297 | 0.0 | 0.0 | 0.00 | 0.00 | 0.00 | 99 | 1017.2 |
| 20260502052415 | 3 | 297 | 0.0 | 0.0 | 0.00 | 0.00 | 0.00 | 99 | 1017.6 |
| 20260502051826 | 4 | 297 | 0.0 | 0.0 | 0.00 | 0.00 | 0.00 | 99 | 1017.2 |
| 20260502051220 | 4 | 297 | 0.0 | 0.0 | 0.00 | 0.00 | 0.00 | 99 | 1017.6 |
| 20260502050628 | 4 | 297 | 0.0 | 0.0 | 0.00 | 0.00 | 0.00 | 98 | 1017.6 |
| 20260502050039 | 4 | 297 | 0.0 | 0.0 | 0.00 | 0.00 | 0.00 | 98 | 1017.2 |
| 20260502045433 | 4 | 297 | 0.0 | 0.0 | 0.00 | 0.00 | 0.00 | 98 | 1017.6 |
| 20260502044838 | 4 | 297 | 0.0 | 0.0 | 0.00 | 0.00 | 0.00 | 98 | 1017.6 |
| 20260502043629 | 4 | 297 | 0.0 | 0.0 | 0.00 | 0.00 | 0.00 | 98 | 1017.6 |
| 20260502043043 | 4 | 316 | 0.0 | 0.0 | 0.00 | 0.00 | 0.00 | 98 | 1017.6 |
| 20260502042435 | 5 | 319 | 0.0 | 0.0 | 0.00 | 0.00 | 0.00 | 98 | 1017.6 |
| 20260502041810 | 4 | 319 | 0.0 | 0.0 | 0.00 | 0.00 | 0.00 | 97 | 1017.6 |
| 20260502041217 | 5 | 319 | 0.0 | 0.0 | 0.00 | 0.00 | 0.00 | 97 | 1017.6 |
| 20260502040649 | 4 | 319 | 0.0 | 0.0 | 0.00 | 0.00 | 0.00 | 97 | 1017.6 |
| 20260502040019 | 4 | 319 | 0.0 | 0.0 | 0.00 | 0.00 | 0.05 | 97 | 1017.6 |
| 20260502035442 | 4 | 304 | 0.0 | 0.0 | 0.00 | 0.00 | 0.05 | 97 | 1017.6 |
| 20260502034810 | 4 | 295 | 1.6 | 4.8 | 0.00 | 0.00 | 0.05 | 97 | 1017.6 |
| 20260502034246 | 4 | 319 | 0.0 | 0.0 | 0.00 | 0.00 | 0.05 | 97 | 1017.6 |
| 20260502033649 | 4 | 320 | 0.0 | 0.0 | 0.00 | 0.00 | 0.05 | 97 | 1017.6 |
| 20260502033012 | 4 | 320 | 0.0 | 0.0 | 0.00 | 0.00 | 0.05 | 97 | 1017.6 |
| 20260502032426 | 4 | 321 | 0.0 | 0.0 | 0.00 | 0.00 | 0.05 | 97 | 1017.6 |
| 20260502031841 | 4 | 320 | 0.0 | 0.0 | 0.00 | 0.00 | 0.05 | 96 | 1017.6 |
| 20260502031213 | 4 | 325 | 0.0 | 0.0 | 0.00 | 0.00 | 0.05 | 96 | 1017.6 |
| 20260502030616 | 4 | 325 | 0.0 | 0.0 | 0.00 | 0.00 | 0.05 | 96 | 1017.6 |
| 20260502030046 | 4 | 325 | 0.0 | 0.0 | 0.00 | 0.00 | 0.05 | 96 | 1017.6 |
| 20260502025414 | 4 | 325 | 0.0 | 0.0 | 0.00 | 0.00 | 0.05 | 95 | 1017.2 |
| 20260502024827 | 4 | 325 | 0.0 | 0.0 | 0.00 | 0.00 | 0.05 | 95 | 1017.6 |
| 20260502024219 | 4 | 326 | 0.0 | 0.0 | 0.00 | 0.00 | 0.05 | 95 | 1017.2 |
| 20260502023624 | 4 | 325 | 0.0 | 1.6 | 0.00 | 0.00 | 0.05 | 95 | 1017.2 |
| 20260502023047 | 4 | 326 | 0.0 | 0.0 | 0.00 | 0.00 | 0.05 | 94 | 1017.6 |
| 20260502022427 | 4 | 326 | 0.0 | 0.0 | 0.00 | 0.00 | 0.05 | 94 | 1017.2 |
| 20260502021812 | 4 | 325 | 1.6 | 1.6 | 0.00 | 0.00 | 0.05 | 94 | 1016.9 |
| 20260502021234 | 4 | 316 | 1.6 | 1.6 | 0.00 | 0.00 | 0.05 | 94 | 1016.9 |
| 20260502020614 | 4 | 334 | 0.0 | 0.0 | 0.00 | 0.00 | 0.05 | 93 | 1017.2 |
| 20260502020036 | 4 | 334 | 0.0 | 0.0 | 0.00 | 0.00 | 0.05 | 93 | 1016.9 |
| 20260502015431 | 5 | 334 | 0.0 | 0.0 | 0.00 | 0.00 | 0.05 | 92 | 1016.9 |
| 20260502014842 | 5 | 334 | 0.0 | 0.0 | 0.00 | 0.00 | 0.05 | 92 | 1016.9 |
| 20260502014227 | 5 | 334 | 0.0 | 1.6 | 0.00 | 0.00 | 0.05 | 91 | 1016.5 |
| 20260502013620 | 5 | 336 | 0.0 | 0.0 | 0.00 | 0.00 | 0.05 | 90 | 1016.9 |
| 20260502013036 | 5 | 337 | 0.0 | 1.6 | 0.00 | 0.00 | 0.05 | 89 | 1016.5 |
| 20260502012450 | 5 | 339 | 0.0 | 1.6 | 0.00 | 0.00 | 0.05 | 89 | 1016.5 |
| 20260502011841 | 6 | 345 | 1.6 | 1.6 | 0.00 | 0.00 | 0.05 | 88 | 1016.2 |
| 20260502011224 | 6 | 346 | 1.6 | 1.6 | 0.00 | 0.00 | 0.05 | 88 | 1015.9 |
| 20260502010625 | 6 | 4 | 0.0 | 1.6 | 0.00 | 0.00 | 0.05 | 87 | 1016.2 |
| 20260502010053 | 6 | 347 | 1.6 | 3.2 | 0.00 | 0.00 | 0.05 | 87 | 1015.9 |
| 20260502005446 | 6 | 350 | 0.0 | 1.6 | 0.00 | 0.00 | 0.05 | 86 | 1015.9 |
| 20260502004843 | 6 | 346 | 0.0 | 1.6 | 0.00 | 0.00 | 0.05 | 85 | 1015.9 |
| 20260502004227 | 6 | 319 | 6.4 | 6.4 | 0.00 | 0.00 | 0.05 | 85 | 1015.9 |
| 20260502003649 | 6 | 332 | 1.6 | 4.8 | 0.00 | 0.00 | 0.05 | 84 | 1015.9 |
| 20260502002449 | 7 | 336 | 3.2 | 4.8 | 0.00 | 0.00 | 0.05 | 83 | 1015.9 |
| 20260502001832 | 7 | 349 | 1.6 | 3.2 | 0.00 | 0.00 | 0.05 | 83 | 1015.5 |
| 20260502001246 | 7 | 352 | 1.6 | 3.2 | 0.00 | 0.00 | 0.05 | 82 | 1015.5 |
| 20260502000031 | 7 | 356 | 8.0 | 17.7 | 0.00 | 0.00 | 0.05 | 82 | 1015.5 |
| 20260501235453 | 8 | 0 | 3.2 | 12.9 | 0.00 | 0.00 | 0.05 | 82 | 1015.2 |
| 20260501234840 | 8 | 331 | 1.6 | 6.4 | 0.00 | 0.00 | 0.05 | 81 | 1015.2 |
| 20260501234253 | 8 | 314 | 4.8 | 11.3 | 0.00 | 0.00 | 0.05 | 81 | 1014.9 |
| 20260501233644 | 7 | 343 | 3.2 | 11.3 | 0.00 | 0.00 | 0.05 | 81 | 1015.2 |
| 20260501233024 | 8 | 322 | 4.8 | 9.7 | 0.00 | 0.00 | 0.05 | 80 | 1015.2 |
| 20260501232442 | 8 | 286 | 8.0 | 16.1 | 0.00 | 0.00 | 0.05 | 80 | 1015.2 |
| 20260501231817 | 8 | 51 | 9.7 | 16.1 | 0.00 | 0.00 | 0.05 | 80 | 1014.9 |
| 20260501231255 | 8 | 300 | 11.3 | 16.1 | 0.00 | 0.00 | 0.05 | 80 | 1014.9 |
| 20260501230650 | 8 | 301 | 6.4 | 6.4 | 0.00 | 0.00 | 0.05 | 79 | 1014.9 |
| 20260501230036 | 8 | 313 | 11.3 | 16.1 | 0.00 | 0.00 | 0.05 | 78 | 1014.5 |
| 20260501225415 | 8 | 318 | 11.3 | 24.1 | 0.00 | 0.00 | 0.05 | 78 | 1014.5 |
| 20260501224827 | 8 | 341 | 4.8 | 14.5 | 0.00 | 0.00 | 0.05 | 78 | 1014.5 |
| 20260501224233 | 9 | 321 | 4.8 | 17.7 | 0.00 | 0.00 | 0.05 | 77 | 1014.5 |
| 20260501223617 | 9 | 323 | 4.8 | 12.9 | 0.00 | 0.00 | 0.05 | 77 | 1014.5 |
| 20260501223053 | 9 | 302 | 17.7 | 25.7 | 0.00 | 0.00 | 0.05 | 77 | 1014.5 |
| 20260501222451 | 10 | 307 | 6.4 | 9.7 | 0.00 | 0.00 | 0.05 | 77 | 1014.5 |
| 20260501221839 | 10 | 311 | 19.3 | 27.4 | 0.00 | 0.00 | 0.05 | 77 | 1014.2 |
| 20260501221246 | 10 | 273 | 11.3 | 32.2 | 0.00 | 0.00 | 0.05 | 77 | 1014.2 |
| 20260501220645 | 11 | 329 | 9.7 | 17.7 | 0.00 | 0.00 | 0.05 | 74 | 1013.8 |
| 20260501220021 | 11 | 311 | 19.3 | 22.5 | 0.00 | 0.00 | 0.05 | 73 | 1013.8 |
| 20260501215415 | 11 | 347 | 16.1 | 19.3 | 0.00 | 0.00 | 0.05 | 73 | 1013.5 |
| 20260501214238 | 11 | 295 | 8.0 | 24.1 | 0.00 | 0.00 | 0.05 | 76 | 1013.5 |
| 20260501213041 | 11 | 278 | 8.0 | 16.1 | 0.00 | 0.00 | 0.05 | 79 | 1013.2 |
| 20260501211829 | 11 | 292 | 3.2 | 9.7 | 0.00 | 0.00 | 0.05 | 80 | 1013.2 |
| 20260501211210 | 11 | 317 | 8.0 | 11.3 | 0.00 | 0.00 | 0.05 | 79 | 1012.5 |
| 20260501210617 | 12 | 290 | 6.4 | 11.3 | 0.00 | 0.00 | 0.05 | 78 | 1012.5 |
| 20260501210030 | 12 | 288 | 3.2 | 12.9 | 0.00 | 0.00 | 0.05 | 80 | 1012.5 |
| 20260501205421 | 12 | 252 | 6.4 | 6.4 | 0.00 | 0.00 | 0.05 | 82 | 1012.5 |
| 20260501204849 | 11 | 267 | 3.2 | 14.5 | 0.00 | 0.00 | 0.05 | 82 | 1012.5 |
| 20260501203622 | 11 | 269 | 12.9 | 19.3 | 0.00 | 0.00 | 0.05 | 84 | 1012.8 |
| 20260501202444 | 10 | 286 | 8.0 | 22.5 | 0.00 | 0.00 | 0.05 | 88 | 1012.5 |
| 20260501201809 | 10 | 250 | 3.2 | 11.3 | 0.00 | 0.00 | 0.05 | 90 | 1012.5 |
| 20260501201239 | 10 | 276 | 8.0 | 9.7 | 0.00 | 0.00 | 0.05 | 91 | 1012.8 |
| 20260501200048 | 9 | 278 | 3.2 | 11.3 | 0.00 | 0.00 | 0.05 | 93 | 1013.2 |
| 20260501194853 | 9 | 233 | 6.4 | 14.5 | 0.00 | 0.00 | 0.05 | 93 | 1013.2 |
| 20260501194230 | 9 | 279 | 8.0 | 9.7 | 0.00 | 0.00 | 0.05 | 93 | 1013.5 |
| 20260501193623 | 9 | 280 | 6.4 | 9.7 | 0.00 | 0.00 | 0.05 | 93 | 1013.5 |
| 20260501193039 | 9 | 308 | 4.8 | 9.7 | 0.00 | 0.00 | 0.05 | 93 | 1013.5 |
| 20260501192423 | 9 | 221 | 4.8 | 6.4 | 0.00 | 0.00 | 0.05 | 93 | 1013.5 |
| 20260501191236 | 9 | 296 | 11.3 | 16.1 | 0.00 | 0.00 | 0.05 | 93 | 1013.5 |
| 20260501190646 | 9 | 271 | 6.4 | 11.3 | 0.00 | 0.00 | 0.05 | 92 | 1013.5 |
| 20260501190013 | 10 | 291 | 11.3 | 22.5 | 0.00 | 0.00 | 0.05 | 92 | 1013.5 |
| 20260501185428 | 10 | 275 | 9.7 | 11.3 | 0.00 | 0.00 | 0.05 | 92 | 1013.2 |
| 20260501184841 | 10 | 282 | 3.2 | 11.3 | 0.00 | 0.00 | 0.05 | 91 | 1013.2 |
| 20260501184223 | 10 | 306 | 3.2 | 6.4 | 0.00 | 0.00 | 0.05 | 91 | 1013.2 |
| 20260501183648 | 10 | 275 | 3.2 | 4.8 | 0.00 | 0.00 | 0.05 | 90 | 1013.2 |
| 20260501182421 | 10 | 274 | 1.6 | 9.7 | 0.00 | 0.00 | 0.05 | 89 | 1013.2 |
| 20260501181823 | 10 | 312 | 3.2 | 6.4 | 0.00 | 0.00 | 0.05 | 89 | 1012.8 |
| 20260501181238 | 10 | 320 | 3.2 | 6.4 | 0.00 | 0.00 | 0.03 | 88 | 1013.2 |
| 20260501180653 | 10 | 250 | 4.8 | 9.7 | 0.00 | 0.00 | 0.03 | 88 | 1012.8 |
| 20260501180037 | 10 | 202 | 1.6 | 4.8 | 0.00 | 0.00 | 0.03 | 89 | 1012.8 |
| 20260501172428 | 10 | 256 | 3.2 | 12.9 | 0.00 | 0.00 | 0.03 | 85 | 1013.2 |
| 20260501171232 | 10 | 271 | 3.2 | 6.4 | 0.00 | 0.00 | 0.03 | 85 | 1013.2 |
| 20260501170612 | 10 | 276 | 4.8 | 6.4 | 0.00 | 0.00 | 0.03 | 83 | 1013.2 |
| 20260501170023 | 10 | 242 | 3.2 | 6.4 | 0.00 | 0.00 | 0.00 | 81 | 1013.2 |
| 20260501164851 | 11 | 278 | 0.0 | 1.6 | 0.00 | 0.00 | 0.00 | 76 | 1013.2 |
| 20260501164237 | 11 | 273 | 1.6 | 4.8 | 0.00 | 0.00 | 0.00 | 73 | 1013.2 |
| 20260501163644 | 11 | 261 | 3.2 | 3.2 | 0.00 | 0.00 | 0.00 | 71 | 1013.2 |
| 20260501162426 | 11 | 248 | 1.6 | 6.4 | 0.00 | 0.00 | 0.00 | 69 | 1012.8 |
| 20260501160626 | 12 | 180 | 3.2 | 4.8 | 0.00 | 0.00 | 0.00 | 69 | 1013.2 |
| 20260501160022 | 12 | 306 | 3.2 | 4.8 | 0.00 | 0.00 | 0.00 | 69 | 1012.8 |